Weather reports worldwide

Advertisment
Palma De Mallorca/Son San Ju, Spain (8306): temperature & dewpoint: 30.06.2020 07:00:00 - 06.07.2020 07:00:00 (CEST)Palma De Mallorca/Son San Ju, Spain (8306): wind speed: 30.06.2020 07:00:00 - 06.07.2020 07:00:00 (CEST)Palma De Mallorca/Son San Ju, Spain (8306): wind direction: 30.06.2020 07:00:00 - 06.07.2020 07:00:00 (CEST)Palma De Mallorca/Son San Ju, Spain (8306): reduced air pressure: 30.06.2020 07:00:00 - 06.07.2020 07:00:00 (CEST)Palma De Mallorca/Son San Ju, Spain (8306): visibility: 30.06.2020 07:00:00 - 06.07.2020 07:00:00 (CEST)
Date & Time tt [°C] td [°C] ff [km/h] ff [kn] dd ppp [hPa] vv [km]
06.07.2020 07:00:00 18,4 14,5 5 3 ENE 1016,3 10
06.07.2020 06:00:00 18,2 15,6 5 3 ENE 1016,2 10
06.07.2020 05:00:00 18,6 16,4 5 3 NE 1016,3 25
06.07.2020 04:00:00 19,3 16,5 2 1 - 1016,5 10
06.07.2020 03:00:00 20,0 16,0 4 2 - 1017,0 10
06.07.2020 02:00:00 23,7 19,4 15 8 WSW 1017,4 28
06.07.2020 01:00:00 23,8 18,8 11 6 WSW 1017,6 10
06.07.2020 00:00:00 24,0 18,4 13 7 WSW 1017,9 10
05.07.2020 23:00:00 24,5 17,5 13 7 WSW 1018,0 10
05.07.2020 22:00:00 25,0 16,6 13 7 SW 1017,7 10
05.07.2020 21:00:00 25,6 17,2 16 9 WSW 1017,7 10
05.07.2020 20:00:00 26,4 18,2 28 15 SW 1017,8 30
05.07.2020 19:00:00 27,3 18,4 26 14 SW 1018,0 10
05.07.2020 18:00:00 28,2 17,5 22 12 SW 1018,5 10
05.07.2020 17:00:00 28,4 17,7 26 14 SW 1019,0 30
05.07.2020 16:00:00 28,8 17,1 28 15 SW 1019,3 10
05.07.2020 15:00:00 29,6 14,2 26 14 SW 1019,8 10
05.07.2020 14:00:00 29,5 13,8 28 15 SW 1020,3 30
05.07.2020 13:00:00 29,4 12,2 22 12 SW 1020,8 10
05.07.2020 12:00:00 29,4 12,3 15 8 SW 1021,0 10
05.07.2020 11:00:00 28,6 14,1 9 5 SW 1021,0 30
05.07.2020 10:00:00 26,9 16,5 2 1 SW 1020,9 10
05.07.2020 09:00:00 24,2 19,1 4 2 NNE 1021,1 10
05.07.2020 08:00:00 20,4 18,0 5 3 NNE 1020,9 26
05.07.2020 07:00:00 17,3 16,2 5 3 ENE 1020,6 10
05.07.2020 06:00:00 17,4 16,4 0 0 N 1020,5 10
05.07.2020 05:00:00 18,1 17,1 4 2 ENE 1020,6 10
05.07.2020 04:00:00 18,8 17,5 2 1 ENE 1020,8 10
05.07.2020 03:00:00 19,7 18,0 2 1 - 1021,2 10
05.07.2020 02:00:00 20,3 18,2 8 4 ENE 1021,5 10
05.07.2020 01:00:00 21,0 18,9 0 0 N 1021,5 10
05.07.2020 00:00:00 21,6 19,0 8 4 NE 1021,6 10
04.07.2020 23:00:00 23,7 19,4 11 6 SW 1021,2 10
04.07.2020 22:00:00 24,7 19,8 16 9 SSW 1020,7 10
04.07.2020 21:00:00 25,2 19,8 15 8 SSW 1020,3 10
04.07.2020 20:00:00 25,7 19,3 24 13 SSW 1020,1 30
04.07.2020 19:00:00 26,7 19,3 26 14 SSW 1020,0 10
04.07.2020 18:00:00 27,2 19,3 26 14 SW 1020,4 10
04.07.2020 17:00:00 26,2 19,0 29 16 SW 1020,7 10
04.07.2020 16:00:00 27,5 18,8 26 14 SW 1020,9 10
04.07.2020 15:00:00 27,2 18,6 26 14 SW 1021,5 10
04.07.2020 14:00:00 27,3 18,1 22 12 WSW 1021,8 10
04.07.2020 13:00:00 27,0 17,9 21 11 SW 1022,0 10
04.07.2020 12:00:00 26,6 17,9 21 11 SW 1022,2 10
04.07.2020 11:00:00 26,0 18,2 15 8 SW 1022,0 10
04.07.2020 10:00:00 25,7 17,9 11 6 SSW 1021,8 10
04.07.2020 09:00:00 24,8 16,0 2 1 S 1021,7 10
04.07.2020 08:00:00 20,8 15,3 0 0 N 1021,3 10
04.07.2020 07:00:00 17,4 14,9 2 1 NE 1021,0 10
04.07.2020 06:00:00 17,2 14,7 5 3 NE 1021,0 10
04.07.2020 05:00:00 17,8 14,7 5 3 E 1021,0 25
04.07.2020 04:00:00 18,5 15,0 0 0 N 1021,1 10
04.07.2020 03:00:00 18,6 14,9 5 3 NE 1021,4 10
04.07.2020 02:00:00 19,5 15,2 4 2 ENE 1021,4 25
04.07.2020 01:00:00 20,3 15,1 8 4 E 1021,3 10
04.07.2020 00:00:00 21,6 15,2 5 3 ENE 1021,1 10
03.07.2020 23:00:00 22,3 15,4 9 5 ENE 1020,4 10
03.07.2020 22:00:00 24,0 15,5 11 6 ENE 1019,4 10
03.07.2020 21:00:00 25,3 16,7 9 5 W 1019,0 10
03.07.2020 20:00:00 25,5 17,4 13 7 W 1018,7 10
03.07.2020 19:00:00 26,1 17,7 15 8 WSW 1018,4 10
03.07.2020 18:00:00 27,4 18,1 16 9 WSW 1018,3 10
03.07.2020 17:00:00 28,1 15,0 16 9 E 1018,3 25
03.07.2020 16:00:00 28,7 15,3 18 10 ENE 1018,2 10
03.07.2020 15:00:00 27,8 15,6 22 12 ENE 1018,5 10
03.07.2020 14:00:00 27,6 16,5 29 16 ENE 1018,4 25
03.07.2020 13:00:00 26,6 16,1 29 16 ENE 1018,7 10
03.07.2020 12:00:00 26,1 15,5 31 17 ENE 1018,5 10
03.07.2020 11:00:00 25,3 15,7 35 19 ENE 1017,9 25
03.07.2020 10:00:00 25,3 15,9 39 21 ENE 1017,6 10
03.07.2020 09:00:00 25,0 15,8 34 18 ENE 1017,2 10
03.07.2020 08:00:00 24,3 16,6 26 14 NE 1016,7 10
03.07.2020 07:00:00 23,3 17,1 21 11 ENE 1016,1 10
03.07.2020 06:00:00 23,2 18,5 21 11 ENE 1015,7 10
03.07.2020 05:00:00 23,5 19,2 22 12 ENE 1015,6 10
03.07.2020 04:00:00 24,1 20,0 22 12 ENE 1015,8 10
03.07.2020 03:00:00 24,6 19,7 22 12 ENE 1015,5 10
03.07.2020 02:00:00 25,0 21,5 21 11 ENE 1015,1 15
03.07.2020 01:00:00 24,8 21,9 8 4 E 1015,1 10
03.07.2020 00:00:00 24,7 21,4 15 8 E 1014,8 10
02.07.2020 23:00:00 25,1 21,6 13 7 ENE 1014,2 18
02.07.2020 22:00:00 25,7 21,6 4 2 WNW 1013,1 10
02.07.2020 21:00:00 27,0 22,2 5 3 SW 1012,3 10
02.07.2020 20:00:00 28,0 21,8 5 3 SW 1012,0 10
02.07.2020 19:00:00 28,3 21,8 15 8 SW 1012,2 10
02.07.2020 18:00:00 28,9 21,9 18 10 SSW 1012,1 10
02.07.2020 17:00:00 29,0 21,5 24 13 SW 1012,2 30
02.07.2020 16:00:00 28,9 21,4 21 11 WSW 1012,4 10
02.07.2020 15:00:00 29,9 20,7 18 10 SW 1012,5 10
02.07.2020 14:00:00 29,8 22,0 16 9 SW 1013,2 10
02.07.2020 13:00:00 29,4 21,5 15 8 SW 1013,6 10
02.07.2020 12:00:00 28,5 21,2 21 11 SW 1013,6 10
02.07.2020 11:00:00 29,8 20,4 8 4 E 1013,2 28
02.07.2020 10:00:00 27,9 19,9 4 2 ENE 1012,9 10
02.07.2020 09:00:00 26,3 21,1 4 2 - 1013,2 10
02.07.2020 08:00:00 24,4 21,7 5 3 NNE 1013,1 15
02.07.2020 07:00:00 23,2 21,5 2 1 - 1013,0 10
02.07.2020 06:00:00 22,8 21,3 5 3 SE 1012,8 10
02.07.2020 05:00:00 22,2 20,7 8 4 E 1012,1 15
02.07.2020 04:00:00 22,9 21,2 8 4 NE 1012,1 10
02.07.2020 03:00:00 23,1 21,4 8 4 ENE 1012,3 10
02.07.2020 02:00:00 23,0 21,4 4 2 E 1012,6 15
02.07.2020 01:00:00 23,3 22,1 8 4 ENE 1012,4 10
02.07.2020 00:00:00 25,1 22,8 4 2 - 1012,2 10
01.07.2020 23:00:00 25,2 22,7 8 4 WSW 1011,8 15
01.07.2020 22:00:00 25,6 22,9 16 9 SW 1011,1 10
01.07.2020 21:00:00 26,5 22,8 15 8 SW 1010,4 10
01.07.2020 20:00:00 27,8 22,1 16 9 SW 1010,1 10
01.07.2020 19:00:00 29,1 21,8 26 14 SW 1009,9 10
01.07.2020 18:00:00 30,5 21,8 22 12 SW 1009,9 10
01.07.2020 17:00:00 31,8 20,0 35 19 WSW 1010,0 28
01.07.2020 16:00:00 32,0 21,5 29 16 WSW 1009,9 10
01.07.2020 15:00:00 31,1 21,6 28 15 WSW 1010,1 10
01.07.2020 14:00:00 30,4 20,0 26 14 WSW 1010,3 10
01.07.2020 13:00:00 30,8 19,6 26 14 WSW 1010,5 10
01.07.2020 12:00:00 32,0 18,9 5 3 ESE 1010,3 10
01.07.2020 11:00:00 30,5 18,3 4 2 ESE 1010,6 30
01.07.2020 10:00:00 28,7 18,5 11 6 E 1010,8 10
01.07.2020 09:00:00 27,3 18,2 16 9 ENE 1010,7 10
01.07.2020 08:00:00 24,5 15,9 9 5 NE 1010,3 10
01.07.2020 07:00:00 23,2 16,3 9 5 ESE 1010,5 10
01.07.2020 06:00:00 20,9 16,1 8 4 ENE 1010,2 10
01.07.2020 05:00:00 21,5 17,3 5 3 ENE 1010,7 20
01.07.2020 04:00:00 22,8 16,8 4 2 ENE 1011,0 10
01.07.2020 03:00:00 24,8 16,3 15 8 ENE 1010,9 10
01.07.2020 02:00:00 23,5 17,9 15 8 ENE 1012,1 10
01.07.2020 01:00:00 23,6 19,9 11 6 NE 1012,9 10
01.07.2020 00:00:00 24,2 19,5 11 6 ENE 1013,2 10
30.06.2020 23:00:00 25,2 17,4 16 9 ENE 1012,7 10
30.06.2020 22:00:00 27,3 17,2 13 7 NE 1011,8 10
30.06.2020 21:00:00 29,2 14,8 8 4 SSE 1012,0 10
30.06.2020 20:00:00 30,0 18,9 13 7 SSE 1012,0 10
30.06.2020 19:00:00 29,5 18,9 15 8 W 1012,1 10
30.06.2020 18:00:00 30,6 19,0 16 9 W 1012,4 10
30.06.2020 17:00:00 32,8 17,8 15 8 S 1013,0 10
30.06.2020 16:00:00 34,0 17,6 15 8 SSE 1013,4 10
30.06.2020 15:00:00 34,8 14,8 15 8 SE 1013,7 10
30.06.2020 14:00:00 32,3 18,2 18 10 W 1014,2 30
30.06.2020 13:00:00 29,8 20,6 16 9 W 1014,7 10
30.06.2020 12:00:00 29,7 20,6 16 9 WSW 1014,8 10
30.06.2020 11:00:00 30,2 19,6 8 4 SSW 1015,2 30
30.06.2020 10:00:00 27,8 20,9 8 4 E 1015,2 10
30.06.2020 09:00:00 25,5 21,2 13 7 ENE 1015,0 10
30.06.2020 08:00:00 23,5 21,2 13 7 ENE 1014,8 10
30.06.2020 07:00:00 20,4 17,2 5 3 N 1014,8 10

tt = temperature
td = dewpoint
ff = wind speed
dd = wind direction
ppp = reduced air pressure
vv = visibility

Next stations